[[{"header":{"parameterUnit":"m.s-1","parameterCategory":2,"la1":30.2991,"la2":30.254,"lo1":-89.0895,"lo2":-89.0444,"dy":0.0017,"dx":0.0017,"nx":28,"ny":28,"refTime":"2025-09-12T09:00:00:Z","depth":"0","parameterNumber":2,"parameterNumberName":"U-component_of_CURRENTS"},"data":[0,0,0,0,0,0,0,0,0,0,0,0,0,0,0,0,0,0,0,0,0,0,0,0,0,0,0,0,0,0,0,0,0,0,0,0,0,0,0,0,0,0,0,0,0,0,0,0,0,0,0,0,0,0,0,0,0,0,0.1559,0.1559,0,0.1571,0.1571,0.1572,0.1576,0.1576,0.1576,0.1576,0.1574,0.1574,0.1574,0,0,0,0,0,0,0,0,0,0,0,0,0,0.1571,0.157,0.1559,0.1559,0.1559,0.1571,0.1571,0.1572,0.1576,0.1576,0.1576,0.1576,0.1574,0.1574,0.1574,0,0,0,0,0,0,0,0,0,0,0,0,0,0.1573,0.157,0.1559,0.1563,0.1563,0.1571,0.1571,0.1572,0.1576,0.1576,0.1576,0.1576,0.1574,0.1574,0.1574,0.1576,0,0,0.1574,0.1574,0,0,0,0,0,0,0,0,0.1573,0.1572,0.1562,0.1562,0.1563,0.1572,0.1575,0.1572,0.1576,0.1571,0.1576,0.1576,0.1572,0.1572,0.1575,0.1575,0.1575,0.1574,0.1574,0.1574,0.1574,0,0,0,0,0,0,0,0.1572,0.1572,0.1564,0.1562,0.1563,0.1575,0.1575,0.1575,0.1572,0.1572,0.1572,0.1573,0.1572,0.1575,0.1575,0.1575,0.1574,0.1574,0.1574,0.1574,0.1591,0.1591,0,0,0,0,0,0,0.1569,0.1572,0.1563,0.1564,0.1568,0.1575,0.1575,0.1569,0.1572,0.1572,0.1573,0.1574,0.1575,0.1575,0.1575,0.1597,0.1574,0.1574,0.1574,0.159,0.1591,0.1591,0,0,0,0,0,0,0.1569,0.1568,0.1563,0.1569,0.1569,0.1574,0.1568,0.157,0.157,0.1574,0.1574,0.1572,0.1575,0.1575,0.1581,0.1596,0.1574,0.1574,0.159,0.159,0.1591,0.1627,0,0,0,0,0,0,0.1569,0.1568,0.1563,0.1568,0.1568,0.1559,0.1569,0.157,0.1571,0.1571,0.1572,0.1572,0.1575,0.1582,0.1581,0.1595,0.1574,0.1589,0.159,0.1591,0.1625,0.1629,0.1632,0,0,0,0,0,0.157,0.1558,0.1563,0.1562,0.1562,0.1559,0.156,0.1564,0.1571,0.1565,0.1578,0.1572,0.1587,0.1582,0.1582,0.1596,0.1589,0.159,0.1591,0.1624,0.1628,0.1632,0,0,0,0,0,0,0.1558,0.1558,0.1563,0.1552,0.1553,0.1559,0.1558,0.1562,0.1568,0.1574,0.1578,0.1578,0.1585,0.1585,0.158,0.1602,0.1587,0.1588,0.1612,0.1616,0.1619,0.1649,0.1574,0,0,0,0,0,0.1555,0.1547,0.1551,0.1542,0.1544,0.1553,0.1553,0.1558,0.1564,0.1567,0.1569,0.1578,0.159,0.1598,0.1597,0.1613,0.1638,0.1621,0.1625,0.1628,0.1652,0.1682,0.1691,0.1595,0.1595,0.1595,0,0,0.1551,0.1548,0.1545,0.154,0.1545,0.1564,0.1552,0.1553,0.1577,0.1566,0.1589,0.1581,0.1593,0.161,0.1614,0.1614,0.1672,0.1629,0.1632,0.1655,0.1684,0.1693,0.1702,0.1595,0.1595,0.1595,0,0,0.1549,0.1535,0.1539,0.1545,0.1551,0.1559,0.1559,0.1565,0.1573,0.159,0.1593,0.1601,0.1609,0.163,0.1643,0.1665,0.1679,0.1654,0.1709,0.1737,0.1746,0.1753,0.1819,0.1833,0.1667,0.1667,0.1667,0,0.1546,0.1556,0.1539,0.1555,0.1573,0.1562,0.1591,0.1596,0.1604,0.1629,0.16,0.1639,0.1628,0.1688,0.1691,0.1675,0.1704,0.1693,0.1743,0.1751,0.1759,0.1824,0.1839,0.1669,0.1669,0.1669,0.1669,0,0.1565,0.1576,0.1578,0.1603,0.1614,0.1628,0.1644,0.1656,0.166,0.1677,0.171,0.1697,0.1734,0.1717,0.1712,0.1765,0.1774,0.1735,0.1737,0.1771,0.1838,0.1852,0.1672,0.1671,0.1671,0.167,0,0,0.1559,0.1588,0.1593,0.1619,0.1646,0.1656,0.1702,0.1746,0.1793,0.178,0.1846,0.184,0.1833,0.1847,0.1832,0.1848,0.1914,0.1818,0.1818,0.1893,0.2012,0.2101,0.2125,0.1878,0.188,0.1882,0.2046,0,0.1588,0.1625,0.1642,0.1695,0.1719,0.1744,0.1791,0.1829,0.1854,0.1903,0.1904,0.1942,0.1885,0.1902,0.1911,0.1913,0.195,0.1876,0.1961,0.1965,0.2046,0.2144,0.2078,0.2225,0.206,0.2062,0.2064,0,0.1616,0.1636,0.1686,0.1752,0.1769,0.1803,0.1888,0.193,0.2002,0.2024,0.2067,0.2069,0.2118,0.2036,0.2096,0.2052,0.2046,0.2034,0.2039,0.2124,0.2082,0.2159,0.2257,0.2196,0.2086,0.2084,0.2083,0,0.1615,0.1676,0.1715,0.1735,0.18,0.1842,0.1889,0.1967,0.2018,0.2107,0.2156,0.2206,0.2242,0.2237,0.2239,0.2168,0.2304,0.2202,0.2289,0.2296,0.2262,0.2263,0.2319,0.2248,0.2248,0.2247,0.2247,0,0.1636,0.1668,0.1715,0.1732,0.1795,0.185,0.1931,0.1991,0.2089,0.2157,0.2213,0.2283,0.2286,0.2361,0.2321,0.2402,0.2386,0.2349,0.2357,0.2276,0.2277,0.2237,0.219,0.2253,0.2252,0.2251,0.225,0,0.1617,0.165,0.1691,0.1761,0.1786,0.1829,0.1935,0.1992,0.2101,0.2198,0.2234,0.2371,0.2487,0.2528,0.2564,0.2542,0.2528,0.26,0.2541,0.254,0.2538,0.2495,0.2509,0.2425,0.2721,0.2725,0.2727,0,0.1608,0.1623,0.1685,0.1706,0.1734,0.1804,0.185,0.1969,0.2033,0.2239,0.2282,0.2471,0.2567,0.2744,0.277,0.2827,0.2672,0.2796,0.2639,0.2593,0.2548,0.2404,0.2317,0.2608,0.261,0.2611,0.2612,0,0.1584,0.16,0.1628,0.1667,0.1708,0.1762,0.1844,0.1897,0.2043,0.2148,0.2305,0.2418,0.2656,0.2737,0.2899,0.2893,0.2688,0.2828,0.2766,0.2491,0.2348,0.2252,0.2471,0.2624,0.2623,0.2622,0.2621,0.2621,0.1555,0.1562,0.1592,0.1628,0.1668,0.171,0.1736,0.1836,0.1938,0.2089,0.2242,0.2396,0.2625,0.2853,0.2865,0.2897,0.2791,0.278,0.2745,0.2614,0.2492,0.2793,0.2959,0.2959,0.296,0.2961,0.2961,0,0.1507,0.1523,0.1554,0.1584,0.1595,0.1645,0.1717,0.1737,0.1813,0.2001,0.2131,0.238,0.2551,0.2715,0.2865,0.28,0.2603,0.2732,0.2458,0.2379,0.2648,0.2602,0.2715,0.2715,0.2715,0.2715,0.2715,0.2715,0.1481,0.1483,0.1499,0.1498,0.1519,0.1515,0.1537,0.1589,0.1702,0.1866,0.2018,0.218,0.2503,0.2764,0.2787,0.2717,0.2456,0.2409,0.2351,0.2498,0.2495,0.2493,0.2438,0.2514,0.2514,0.1954,0.195,0.1947]},{"header":{"parameterUnit":"m.s-1","parameterCategory":2,"la1":30.2991,"la2":30.254,"lo1":-89.0895,"lo2":-89.0444,"dy":0.0017,"dx":0.0017,"nx":28,"ny":28,"refTime":"2025-09-12T09:00:00:Z","depth":"0","parameterNumber":3,"parameterNumberName":"V-component_of_CURRENTS"},"data":[0,0,0,0,0,0,0,0,0,0,0,0,0,0,0,0,0,0,0,0,0,0,0,0,0,0,0,0,0,0,0,0,0,0,0,0,0,0,0,0,0,0,0,0,0,0,0,0,0,0,0,0,0,0,0,0,0,0,-0.072,-0.0721,0,-0.0852,-0.0853,-0.0854,-0.0922,-0.0922,-0.0922,-0.0923,-0.1043,-0.1046,-0.1048,0,0,0,0,0,0,0,0,0,0,0,0,0,-0.0568,-0.057,-0.072,-0.0722,-0.0723,-0.0852,-0.0853,-0.0855,-0.0922,-0.0922,-0.0922,-0.0923,-0.1042,-0.1045,-0.1049,0,0,0,0,0,0,0,0,0,0,0,0,0,-0.0658,-0.057,-0.0719,-0.0774,-0.078,-0.0851,-0.0853,-0.0855,-0.0922,-0.0922,-0.0922,-0.0923,-0.104,-0.1045,-0.1049,-0.107,0,0,-0.1063,-0.1065,0,0,0,0,0,0,0,0,-0.0653,-0.0663,-0.0764,-0.077,-0.0777,-0.0872,-0.0844,-0.0927,-0.0922,-0.0866,-0.0923,-0.0923,-0.0986,-0.0995,-0.1016,-0.1075,-0.108,-0.1063,-0.1066,-0.1068,-0.1069,0,0,0,0,0,0,0,-0.0646,-0.0658,-0.077,-0.0766,-0.0774,-0.0806,-0.0819,-0.086,-0.092,-0.0871,-0.0876,-0.0894,-0.0989,-0.1012,-0.1019,-0.1082,-0.1063,-0.1067,-0.107,-0.1072,-0.1173,-0.1173,0,0,0,0,0,0,-0.0632,-0.0652,-0.0766,-0.0774,-0.0717,-0.0808,-0.0823,-0.084,-0.092,-0.0934,-0.0894,-0.0897,-0.1004,-0.1014,-0.1024,-0.1045,-0.1068,-0.1072,-0.1075,-0.1173,-0.1173,-0.1173,0,0,0,0,0,0,-0.0628,-0.0641,-0.0761,-0.0718,-0.0736,-0.0811,-0.083,-0.0842,-0.0864,-0.0938,-0.0951,-0.0902,-0.1004,-0.1018,-0.1053,-0.105,-0.1074,-0.1078,-0.1173,-0.1173,-0.1173,-0.1092,0,0,0,0,0,0,-0.0623,-0.0638,-0.0641,-0.0717,-0.0737,-0.0798,-0.083,-0.0845,-0.0876,-0.0881,-0.095,-0.0962,-0.1006,-0.1046,-0.1057,-0.1057,-0.1082,-0.1173,-0.1173,-0.1173,-0.1095,-0.109,-0.1085,0,0,0,0,0,-0.0617,-0.0619,-0.064,-0.0654,-0.074,-0.0798,-0.0811,-0.0864,-0.0875,-0.0884,-0.0925,-0.096,-0.1055,-0.1049,-0.1063,-0.1064,-0.1173,-0.1173,-0.1173,-0.1097,-0.1091,-0.1085,0,0,0,0,0,0,-0.0558,-0.0628,-0.0653,-0.0677,-0.0731,-0.081,-0.0823,-0.0856,-0.0897,-0.0894,-0.0958,-0.0972,-0.1001,-0.1044,-0.1037,-0.1094,-0.1121,-0.1123,-0.1059,-0.1053,-0.1048,-0.1026,-0.1085,0,0,0,0,0,-0.0544,-0.0558,-0.0637,-0.0653,-0.0679,-0.0747,-0.0774,-0.0808,-0.0859,-0.0877,-0.0926,-0.0974,-0.1013,-0.104,-0.1081,-0.1113,-0.1142,-0.1124,-0.1119,-0.1114,-0.1106,-0.116,-0.1159,-0.1173,-0.1173,-0.1173,0,0,-0.0525,-0.0565,-0.0573,-0.0639,-0.0684,-0.0707,-0.0763,-0.0798,-0.0808,-0.0882,-0.0904,-0.0954,-0.1015,-0.1047,-0.1066,-0.1084,-0.112,-0.1114,-0.111,-0.1104,-0.116,-0.1158,-0.1157,-0.1173,-0.1173,-0.1173,0,0,-0.0485,-0.0529,-0.0525,-0.0565,-0.0626,-0.0671,-0.0676,-0.0751,-0.0776,-0.0809,-0.0858,-0.0906,-0.097,-0.1017,-0.1047,-0.1041,-0.1085,-0.1056,-0.1022,-0.1074,-0.1072,-0.1072,-0.1077,-0.1078,-0.1062,-0.1062,-0.1062,0,-0.0451,-0.0466,-0.0533,-0.0541,-0.0562,-0.0647,-0.0644,-0.0686,-0.0758,-0.0773,-0.0802,-0.09,-0.0955,-0.0996,-0.0998,-0.1029,-0.105,-0.1036,-0.1065,-0.1066,-0.1067,-0.1073,-0.1075,-0.1058,-0.1058,-0.1059,-0.1059,0,-0.0419,-0.0424,-0.0427,-0.046,-0.0492,-0.0506,-0.0575,-0.0603,-0.0644,-0.069,-0.0739,-0.0825,-0.0884,-0.0916,-0.0957,-0.0993,-0.1,-0.1044,-0.1075,-0.106,-0.1067,-0.1071,-0.1052,-0.1054,-0.1055,-0.1056,0,0,-0.0354,-0.0391,-0.0389,-0.0381,-0.0447,-0.0465,-0.0485,-0.053,-0.0528,-0.0617,-0.0627,-0.0725,-0.0781,-0.0819,-0.0889,-0.0947,-0.097,-0.0995,-0.0999,-0.0987,-0.1049,-0.0974,-0.0971,-0.1023,-0.1023,-0.1024,-0.1039,0,-0.0303,-0.0277,-0.032,-0.0294,-0.0289,-0.0363,-0.0369,-0.0417,-0.0471,-0.0503,-0.0611,-0.0646,-0.0741,-0.0764,-0.0841,-0.0938,-0.0981,-0.096,-0.1075,-0.1078,-0.1005,-0.0974,-0.0918,-0.0921,-0.1043,-0.1043,-0.1044,0,-0.026,-0.0243,-0.0202,-0.0198,-0.0204,-0.02,-0.0223,-0.024,-0.0315,-0.036,-0.044,-0.0517,-0.0614,-0.0693,-0.0856,-0.0838,-0.0928,-0.101,-0.1014,-0.0976,-0.1011,-0.0964,-0.0923,-0.1074,-0.1049,-0.1049,-0.1048,0,-0.0178,-0.0162,-0.0116,-0.012,-0.0135,-0.0121,-0.0132,-0.0187,-0.0184,-0.0263,-0.0268,-0.0411,-0.0451,-0.0619,-0.0785,-0.0823,-0.0945,-0.1021,-0.1033,-0.1028,-0.1018,-0.1009,-0.1127,-0.1119,-0.1119,-0.1118,-0.1118,0,-0.0113,-0.0077,-0.0065,-0.0042,0.002,-0.0024,0.0024,-0.002,-0.0048,-0.0023,-0.0178,-0.0176,-0.0434,-0.0537,-0.0728,-0.0863,-0.0899,-0.1004,-0.1028,-0.0983,-0.0972,-0.1134,-0.1233,-0.1119,-0.1119,-0.1119,-0.1119,0,-0.0042,-0.0038,0.0019,0.0043,0.0059,0.0103,0.0134,0.0161,0.0121,0.0151,0.0139,0.0016,-0.0105,-0.0338,-0.0572,-0.0737,-0.0974,-0.0947,-0.0846,-0.0856,-0.1013,-0.1108,-0.123,-0.1286,-0.0971,-0.0969,-0.0968,0,-0.0008,0.0032,0.0094,0.014,0.0157,0.0218,0.0257,0.0241,0.0279,0.0282,0.0312,0.0233,0.0189,-0.0107,-0.0393,-0.0664,-0.0866,-0.0799,-0.0874,-0.0987,-0.1114,-0.1191,-0.1237,-0.0827,-0.0824,-0.0822,-0.0821,0,0.0063,0.0086,0.0135,0.0234,0.0297,0.0368,0.0435,0.0499,0.0498,0.0535,0.0587,0.0568,0.0347,0.012,-0.0218,-0.0435,-0.0875,-0.0762,-0.0936,-0.104,-0.1079,-0.1153,-0.0826,-0.0803,-0.0804,-0.0806,-0.0807,-0.0807,0.0114,0.0167,0.0238,0.0331,0.0407,0.0508,0.0587,0.0665,0.076,0.0841,0.0816,0.0828,0.0516,0.0081,-0.0198,-0.0657,-0.071,-0.0841,-0.0952,-0.1022,-0.1065,-0.0652,-0.0622,-0.0622,-0.0623,-0.0624,-0.0624,0,0.0182,0.0238,0.0328,0.044,0.0534,0.0558,0.0693,0.078,0.0916,0.1005,0.1059,0.0939,0.0552,0.0117,-0.0472,-0.0808,-0.0974,-0.1022,-0.1166,-0.1212,-0.0893,-0.0875,-0.0827,-0.0827,-0.0827,-0.0826,-0.0826,-0.0826,0.022,0.0316,0.0362,0.0528,0.0608,0.0744,0.0829,0.096,0.1061,0.1193,0.1226,0.1215,0.09,-0.0171,-0.0909,-0.1099,-0.1382,-0.14,-0.156,-0.1396,-0.139,-0.1385,-0.1392,-0.1453,-0.1454,-0.1824,-0.1828,-0.1831]}],[{"header":{"parameterUnit":"m.s-1","parameterCategory":2,"la1":30.2991,"la2":30.254,"lo1":-89.0895,"lo2":-89.0444,"dy":0.0017,"dx":0.0017,"nx":28,"ny":28,"refTime":"2025-09-12T09:00:00:Z","depth":"2","parameterNumber":2,"parameterNumberName":"U-component_of_CURRENTS"},"data":[0,0,0,0,0,0,0,0,0,0,0,0,0,0,0,0,0,0,0,0,0,0,0,0,0,0,0,0,0,0,0,0,0,0,0,0,0,0,0,0,0,0,0,0,0,0,0,0,0,0,0,0,0,0,0,0,0,0,0.1681,0.1681,0,0.172,0.172,0.172,0.1714,0.1713,0.1713,0.1712,0.1717,0.1718,0.1718,0,0,0,0,0,0,0,0,0,0,0,0,0,0.1626,0.1627,0.1681,0.1681,0.1682,0.172,0.172,0.172,0.1714,0.1713,0.1713,0.1712,0.1717,0.1717,0.1718,0,0,0,0,0,0,0,0,0,0,0,0,0,0.1653,0.1627,0.168,0.1685,0.1686,0.172,0.172,0.172,0.1714,0.1713,0.1713,0.1712,0.1717,0.1717,0.1718,0.1736,0,0,0.1721,0.1721,0,0,0,0,0,0,0,0,0.1652,0.1655,0.1684,0.1685,0.1686,0.1714,0.1703,0.1725,0.1714,0.1701,0.1712,0.1712,0.1715,0.1716,0.1721,0.1736,0.1737,0.1721,0.1721,0.1722,0.1722,0,0,0,0,0,0,0,0.165,0.1654,0.1693,0.1685,0.1686,0.1695,0.1697,0.1707,0.1708,0.1702,0.1702,0.1711,0.1715,0.1721,0.1721,0.1737,0.1721,0.1721,0.1722,0.1722,0.178,0.1781,0,0,0,0,0,0,0.165,0.1652,0.1692,0.1695,0.167,0.1696,0.1699,0.1703,0.1709,0.171,0.1711,0.1711,0.172,0.172,0.1721,0.1745,0.1721,0.1722,0.1723,0.1779,0.178,0.1782,0,0,0,0,0,0,0.1649,0.1653,0.1691,0.1677,0.1682,0.1698,0.1703,0.1704,0.1704,0.1717,0.1717,0.1709,0.1719,0.172,0.1736,0.1745,0.1723,0.1723,0.1778,0.1779,0.1781,0.179,0,0,0,0,0,0,0.1647,0.1652,0.1651,0.1676,0.1683,0.1689,0.1704,0.1706,0.1712,0.1711,0.1715,0.1715,0.1719,0.1735,0.1737,0.1745,0.1724,0.1776,0.1779,0.178,0.1789,0.1792,0.1795,0,0,0,0,0,0.1645,0.164,0.1651,0.1656,0.1682,0.1688,0.1691,0.1699,0.1713,0.1699,0.1725,0.1715,0.1749,0.1737,0.1739,0.1747,0.1776,0.1778,0.178,0.1787,0.1791,0.1795,0,0,0,0,0,0,0.1614,0.164,0.1652,0.1656,0.1664,0.1687,0.1687,0.1698,0.1709,0.1714,0.1728,0.173,0.1736,0.175,0.1737,0.1772,0.1761,0.1764,0.1766,0.177,0.1773,0.1793,0.1725,0,0,0,0,0,0.1611,0.1612,0.1637,0.1638,0.1646,0.1669,0.1675,0.168,0.1698,0.1701,0.1709,0.1731,0.175,0.1766,0.1766,0.1798,0.1828,0.1807,0.181,0.1812,0.1832,0.189,0.19,0.1789,0.1789,0.1789,0,0,0.1605,0.1616,0.162,0.1631,0.1646,0.167,0.1669,0.1673,0.1699,0.1702,0.1729,0.1725,0.1755,0.1777,0.1785,0.1793,0.1859,0.1815,0.1817,0.1836,0.1894,0.1905,0.1914,0.1791,0.1791,0.179,0,0,0.1598,0.16,0.1608,0.1619,0.1637,0.1654,0.1656,0.1674,0.1683,0.1712,0.1721,0.1738,0.1762,0.1792,0.1815,0.1844,0.1856,0.1832,0.1886,0.1942,0.1951,0.196,0.2008,0.2021,0.1856,0.1856,0.1856,0,0.1587,0.1609,0.1608,0.1626,0.1648,0.1653,0.168,0.1696,0.1715,0.1742,0.1719,0.1783,0.1782,0.1855,0.1857,0.1852,0.1881,0.1865,0.1946,0.1956,0.1965,0.2011,0.2026,0.1857,0.1857,0.1857,0.1857,0,0.1604,0.1622,0.1626,0.1661,0.1676,0.1689,0.1723,0.1736,0.1752,0.1779,0.1819,0.1825,0.1878,0.1867,0.1872,0.1939,0.1936,0.1923,0.1935,0.1976,0.2023,0.2038,0.1858,0.1858,0.1858,0.1858,0,0,0.1583,0.1629,0.1633,0.166,0.1698,0.1711,0.1764,0.1816,0.1868,0.1871,0.1943,0.1957,0.1957,0.1983,0.198,0.2023,0.209,0.2002,0.2005,0.2047,0.2212,0.2195,0.2209,0.2087,0.209,0.2092,0.2216,0,0.1599,0.1635,0.1665,0.1716,0.1741,0.1779,0.1832,0.1879,0.1916,0.1975,0.2003,0.2048,0.2007,0.2026,0.2064,0.2077,0.2131,0.2058,0.2169,0.2172,0.215,0.2227,0.2037,0.2131,0.2231,0.2234,0.2235,0,0.1617,0.1636,0.1681,0.1752,0.1771,0.1808,0.1899,0.1947,0.2039,0.207,0.2133,0.2147,0.2215,0.216,0.2248,0.2202,0.2217,0.2223,0.2228,0.2224,0.2184,0.2107,0.2154,0.226,0.2258,0.2256,0.2255,0,0.1594,0.1658,0.169,0.1711,0.1786,0.1828,0.1881,0.1973,0.2031,0.2136,0.2189,0.2263,0.2311,0.2342,0.2365,0.231,0.246,0.2391,0.24,0.2399,0.2268,0.2251,0.2472,0.2472,0.2472,0.2471,0.2471,0,0.1596,0.1625,0.168,0.1693,0.1751,0.1818,0.1897,0.1968,0.208,0.215,0.2232,0.2299,0.2357,0.2441,0.2431,0.2486,0.253,0.2438,0.2444,0.2265,0.2247,0.2379,0.2366,0.2476,0.2475,0.2474,0.2473,0,0.1562,0.1597,0.1636,0.1709,0.1734,0.1776,0.189,0.1951,0.2069,0.2169,0.2208,0.2359,0.2453,0.2526,0.2601,0.2586,0.2625,0.2636,0.2426,0.2404,0.25,0.2487,0.2639,0.264,0.2641,0.2641,0.2642,0,0.1547,0.1558,0.1622,0.1643,0.1675,0.1743,0.1791,0.1918,0.1987,0.2183,0.2228,0.2388,0.2459,0.2615,0.2625,0.2669,0.2681,0.2529,0.2384,0.2535,0.2525,0.251,0.2496,0.221,0.2207,0.2204,0.2202,0,0.1513,0.1533,0.1561,0.1597,0.1639,0.1693,0.1776,0.1826,0.1976,0.2072,0.2206,0.229,0.2451,0.2433,0.2545,0.2524,0.2499,0.2477,0.2726,0.2198,0.2141,0.2127,0.2125,0.2179,0.2182,0.2183,0.2184,0.2185,0.1483,0.1491,0.1523,0.1558,0.1598,0.1637,0.1659,0.1754,0.1845,0.1972,0.2095,0.2169,0.2255,0.2305,0.2278,0.2271,0.2403,0.2294,0.2297,0.2304,0.2233,0.2181,0.2214,0.2216,0.2218,0.222,0.2222,0,0.1438,0.1454,0.1485,0.1515,0.1527,0.1575,0.1641,0.1652,0.1709,0.1839,0.193,0.1856,0.1896,0.197,0.1924,0.1961,0.1888,0.1883,0.176,0.1787,0.181,0.1707,0.1551,0.1549,0.1546,0.1544,0,0,0.1413,0.1415,0.143,0.1429,0.1452,0.1446,0.1462,0.1493,0.1564,0.16,0.1636,0.181,0.1918,0.1697,0.1701,0.1613,0.167,0.1555,0.2102,0.1983,0.2002,0.2072,0.195,0,0,0,0,0]},{"header":{"parameterUnit":"m.s-1","parameterCategory":2,"la1":30.2991,"la2":30.254,"lo1":-89.0895,"lo2":-89.0444,"dy":0.0017,"dx":0.0017,"nx":28,"ny":28,"refTime":"2025-09-12T09:00:00:Z","depth":"2","parameterNumber":3,"parameterNumberName":"V-component_of_CURRENTS"},"data":[0,0,0,0,0,0,0,0,0,0,0,0,0,0,0,0,0,0,0,0,0,0,0,0,0,0,0,0,0,0,0,0,0,0,0,0,0,0,0,0,0,0,0,0,0,0,0,0,0,0,0,0,0,0,0,0,0,0,-0.032,-0.0319,0,-0.0401,-0.0403,-0.0405,-0.0521,-0.0522,-0.0523,-0.0524,-0.0647,-0.0649,-0.0652,0,0,0,0,0,0,0,0,0,0,0,0,0,-0.023,-0.0232,-0.032,-0.0319,-0.0319,-0.0401,-0.0403,-0.0406,-0.0521,-0.0522,-0.0523,-0.0524,-0.0646,-0.0649,-0.0652,0,0,0,0,0,0,0,0,0,0,0,0,0,-0.0299,-0.0233,-0.032,-0.0377,-0.0382,-0.04,-0.0403,-0.0406,-0.0521,-0.0522,-0.0523,-0.0525,-0.0645,-0.0648,-0.0652,-0.0652,0,0,-0.0664,-0.0666,0,0,0,0,0,0,0,0,-0.0295,-0.0304,-0.0369,-0.0373,-0.0378,-0.0441,-0.0416,-0.0486,-0.0521,-0.0482,-0.0524,-0.0525,-0.0572,-0.0582,-0.0613,-0.0658,-0.0663,-0.0664,-0.0667,-0.0668,-0.0669,0,0,0,0,0,0,0,-0.029,-0.03,-0.0365,-0.0368,-0.0374,-0.0386,-0.0399,-0.0431,-0.0531,-0.0486,-0.0491,-0.0479,-0.0577,-0.0609,-0.0617,-0.0665,-0.0664,-0.0668,-0.067,-0.0671,-0.0736,-0.0736,0,0,0,0,0,0,-0.0254,-0.0296,-0.0363,-0.0366,-0.0323,-0.0386,-0.0401,-0.043,-0.053,-0.0542,-0.0477,-0.0483,-0.0602,-0.0612,-0.0621,-0.0658,-0.0668,-0.0672,-0.0674,-0.0737,-0.0736,-0.0735,0,0,0,0,0,0,-0.0253,-0.0261,-0.0359,-0.032,-0.0331,-0.0385,-0.0418,-0.0431,-0.0467,-0.052,-0.0537,-0.0498,-0.0603,-0.0616,-0.0634,-0.0662,-0.0673,-0.0677,-0.0737,-0.0736,-0.0736,-0.071,0,0,0,0,0,0,-0.0251,-0.0261,-0.0281,-0.0319,-0.0332,-0.0393,-0.0416,-0.0431,-0.0451,-0.046,-0.0543,-0.0556,-0.0605,-0.0627,-0.0637,-0.0667,-0.068,-0.0738,-0.0737,-0.0736,-0.0712,-0.0708,-0.0706,0,0,0,0,0,-0.0248,-0.0258,-0.0283,-0.029,-0.0356,-0.0392,-0.0403,-0.0451,-0.045,-0.0485,-0.0504,-0.0553,-0.0629,-0.0629,-0.0641,-0.0673,-0.0739,-0.0737,-0.0736,-0.0713,-0.0709,-0.0706,0,0,0,0,0,0,-0.0234,-0.027,-0.0299,-0.0324,-0.0365,-0.0407,-0.042,-0.0441,-0.0486,-0.049,-0.0535,-0.0549,-0.0585,-0.0613,-0.0611,-0.0685,-0.0697,-0.0698,-0.0675,-0.0672,-0.0669,-0.0643,-0.0683,0,0,0,0,0,-0.0234,-0.0254,-0.0298,-0.0319,-0.0333,-0.0374,-0.039,-0.043,-0.0458,-0.0482,-0.0521,-0.0556,-0.0589,-0.0613,-0.0655,-0.068,-0.0688,-0.0709,-0.0706,-0.0704,-0.0688,-0.0706,-0.0703,-0.0731,-0.0731,-0.0731,0,0,-0.0228,-0.0249,-0.0261,-0.0316,-0.0345,-0.0354,-0.0393,-0.0424,-0.0428,-0.0483,-0.0498,-0.0549,-0.0589,-0.0631,-0.065,-0.0659,-0.0699,-0.0702,-0.07,-0.0685,-0.0704,-0.0702,-0.0699,-0.073,-0.073,-0.0731,0,0,-0.0198,-0.0251,-0.025,-0.0278,-0.0315,-0.0346,-0.0348,-0.0399,-0.0427,-0.0441,-0.0482,-0.0526,-0.0572,-0.0619,-0.0639,-0.0633,-0.0681,-0.0665,-0.0637,-0.0655,-0.0653,-0.0651,-0.0655,-0.0653,-0.0667,-0.0667,-0.0667,0,-0.0183,-0.02,-0.0256,-0.0254,-0.0255,-0.0329,-0.032,-0.0358,-0.0407,-0.0412,-0.044,-0.0509,-0.056,-0.0593,-0.0608,-0.063,-0.0641,-0.0652,-0.0652,-0.065,-0.0649,-0.0653,-0.0652,-0.0665,-0.0665,-0.0666,-0.0666,0,-0.0152,-0.0163,-0.0159,-0.0183,-0.0205,-0.0216,-0.0258,-0.029,-0.0315,-0.0348,-0.0393,-0.0467,-0.0507,-0.0549,-0.0578,-0.0611,-0.0622,-0.0646,-0.0662,-0.0645,-0.065,-0.0649,-0.0663,-0.0664,-0.0664,-0.0664,0,0,-0.0113,-0.013,-0.0128,-0.012,-0.0167,-0.0178,-0.0182,-0.021,-0.0199,-0.0283,-0.027,-0.0367,-0.0431,-0.0457,-0.0531,-0.0563,-0.058,-0.0604,-0.0606,-0.0608,-0.0612,-0.0583,-0.058,-0.0613,-0.0612,-0.0612,-0.0618,0,-0.0068,-0.0035,-0.0062,-0.0033,-0.0021,-0.0077,-0.0067,-0.0107,-0.0146,-0.0163,-0.0259,-0.0291,-0.0389,-0.0425,-0.0476,-0.0567,-0.0577,-0.0575,-0.0627,-0.0627,-0.0605,-0.0578,-0.0562,-0.0563,-0.0618,-0.0618,-0.0618,0,-0.0028,-0.0007,0.0037,0.0052,0.0053,0.0059,0.0056,0.0048,-0.0002,-0.0036,-0.0108,-0.0181,-0.0276,-0.0336,-0.0472,-0.0473,-0.0524,-0.0582,-0.0584,-0.0561,-0.0597,-0.0589,-0.056,-0.0617,-0.0617,-0.0617,-0.0617,0,0.0032,0.0062,0.0106,0.0109,0.0111,0.0128,0.0123,0.0089,0.01,0.0038,0.0036,-0.0096,-0.0143,-0.0263,-0.0412,-0.0442,-0.0524,-0.0576,-0.0581,-0.058,-0.0575,-0.0573,-0.0601,-0.0601,-0.0601,-0.0601,-0.0601,0,0.009,0.0124,0.0143,0.0165,0.0223,0.0196,0.0242,0.0214,0.0201,0.0224,0.0097,0.0093,-0.0123,-0.0207,-0.0357,-0.0473,-0.0482,-0.0557,-0.0575,-0.0564,-0.0561,-0.0618,-0.062,-0.0601,-0.0601,-0.0601,-0.0601,0,0.014,0.0151,0.0205,0.0235,0.0251,0.0289,0.0325,0.0354,0.0324,0.0353,0.034,0.0242,0.0123,-0.0067,-0.0237,-0.0368,-0.0501,-0.0512,-0.0479,-0.0492,-0.0557,-0.0558,-0.0539,-0.0538,-0.0537,-0.0536,-0.0535,0,0.0166,0.0201,0.0261,0.0302,0.0319,0.0374,0.0412,0.0408,0.0447,0.0449,0.0478,0.0402,0.0346,0.0099,-0.014,-0.036,-0.0402,-0.0456,-0.0504,-0.0529,-0.0549,-0.055,-0.0552,-0.0493,-0.0492,-0.0491,-0.049,0,0.0219,0.0239,0.0285,0.0372,0.0429,0.0495,0.0556,0.0613,0.0619,0.0647,0.068,0.0646,0.044,0.0216,-0.0059,-0.0218,-0.0444,-0.0443,-0.0476,-0.0503,-0.0484,-0.0504,-0.0507,-0.0483,-0.0484,-0.0485,-0.0485,-0.0485,0.0255,0.0301,0.0365,0.0447,0.0516,0.0607,0.0676,0.0744,0.0823,0.0877,0.0843,0.0801,0.0556,0.0208,-0.0055,-0.0329,-0.0331,-0.0448,-0.0452,-0.0456,-0.0441,-0.042,-0.0405,-0.0405,-0.0406,-0.0406,-0.0406,0,0.0307,0.0357,0.0435,0.0536,0.0621,0.0646,0.0766,0.0839,0.0944,0.0985,0.1004,0.0796,0.0553,0.0277,-0.0116,-0.0355,-0.0411,-0.0431,-0.0458,-0.0462,-0.0466,-0.0455,-0.0421,-0.0422,-0.0423,-0.0423,0,0,0.0336,0.0418,0.0461,0.0606,0.0679,0.0802,0.0877,0.0978,0.1042,0.1097,0.1077,0.1001,0.0655,0.0376,0.004,-0.0185,-0.0272,-0.0235,-0.0198,-0.0194,-0.0196,-0.0451,-0.0434,0,0,0,0,0]}],[{"header":{"parameterUnit":"m.s-1","parameterCategory":2,"la1":30.2991,"la2":30.254,"lo1":-89.0895,"lo2":-89.0444,"dy":0.0017,"dx":0.0017,"nx":28,"ny":28,"refTime":"2025-09-12T09:00:00:Z","depth":"4","parameterNumber":2,"parameterNumberName":"U-component_of_CURRENTS"},"data":[0,0,0,0,0,0,0,0,0,0,0,0,0,0,0,0,0,0,0,0,0,0,0,0,0,0,0,0,0,0,0,0,0,0,0,0,0,0,0,0,0,0,0,0,0,0,0,0,0,0,0,0,0,0,0,0,0,0,0.0936,0.0937,0,0.1005,0.1006,0.1006,0.1048,0.1048,0.1049,0.1049,0.1133,0.1134,0.1136,0,0,0,0,0,0,0,0,0,0,0,0,0,0.0865,0.0866,0.0936,0.0937,0.0939,0.1005,0.1006,0.1006,0.1048,0.1048,0.1049,0.105,0.1132,0.1134,0.1136,0,0,0,0,0,0,0,0,0,0,0,0,0,0.0908,0.0866,0.0936,0.097,0.0974,0.1005,0.1006,0.1006,0.1048,0.1048,0.1049,0.105,0.1131,0.1134,0.1136,0.1138,0,0,0.1144,0.1146,0,0,0,0,0,0,0,0,0.0906,0.091,0.0964,0.0967,0.0972,0.1021,0.1011,0.1052,0.1048,0.1016,0.1049,0.105,0.1098,0.1104,0.111,0.1142,0.1145,0.1145,0.1146,0.1147,0.1148,0,0,0,0,0,0,0,0.0903,0.0908,0.096,0.0965,0.097,0.099,0.0996,0.1019,0.105,0.1019,0.1023,0.1035,0.11,0.1108,0.1113,0.1147,0.1145,0.1147,0.1149,0.115,0.1258,0.1259,0,0,0,0,0,0,0.0898,0.0905,0.0958,0.0963,0.0943,0.0991,0.0998,0.1002,0.105,0.1058,0.1035,0.1037,0.1103,0.1109,0.1116,0.1183,0.1147,0.115,0.1151,0.1256,0.1258,0.1259,0,0,0,0,0,0,0.0896,0.0902,0.0956,0.0938,0.0947,0.0991,0.0996,0.1003,0.1037,0.1062,0.1071,0.1064,0.1104,0.1112,0.1162,0.1184,0.1151,0.1153,0.1255,0.1257,0.1258,0.1277,0,0,0,0,0,0,0.0894,0.0901,0.0915,0.0938,0.0948,0.0985,0.0996,0.1004,0.1043,0.1048,0.109,0.1097,0.1105,0.1159,0.1165,0.1187,0.1156,0.1253,0.1256,0.1258,0.1275,0.1279,0.1283,0,0,0,0,0,0.0891,0.0903,0.0915,0.0923,0.0962,0.0986,0.0993,0.1025,0.1044,0.1058,0.1095,0.1097,0.1178,0.1162,0.1169,0.1192,0.1252,0.1255,0.1258,0.1273,0.1278,0.1283,0,0,0,0,0,0,0.0874,0.0909,0.0923,0.0944,0.097,0.0995,0.1017,0.1039,0.1078,0.1092,0.1114,0.1124,0.1175,0.1184,0.1165,0.1232,0.1215,0.1219,0.1224,0.1229,0.1233,0.1257,0.1158,0,0,0,0,0,0.0877,0.0902,0.0929,0.0949,0.0963,0.0995,0.1016,0.1036,0.1069,0.1088,0.112,0.1156,0.1188,0.121,0.1237,0.1274,0.1293,0.1294,0.1298,0.1301,0.1327,0.1387,0.1399,0.1269,0.1269,0.1269,0,0,0.0874,0.0901,0.0913,0.0949,0.0972,0.0998,0.1009,0.1043,0.1074,0.109,0.115,0.1175,0.1203,0.1244,0.1268,0.1258,0.1341,0.1305,0.1308,0.1332,0.1391,0.1404,0.1416,0.1271,0.127,0.127,0,0,0.088,0.0905,0.0928,0.0952,0.0997,0.1016,0.1031,0.107,0.1099,0.1148,0.1172,0.1216,0.1261,0.1289,0.1306,0.1352,0.1362,0.1359,0.14,0.1457,0.1468,0.1479,0.1483,0.1493,0.1359,0.1359,0.1359,0,0.0882,0.0915,0.0937,0.0967,0.0998,0.1027,0.1058,0.1084,0.1139,0.117,0.1171,0.1262,0.1283,0.1342,0.1364,0.1362,0.1386,0.1373,0.1463,0.1474,0.1484,0.1486,0.1498,0.136,0.136,0.136,0.136,0,0.09,0.0937,0.0953,0.1004,0.1031,0.1066,0.1101,0.1141,0.1179,0.1208,0.1279,0.1309,0.1367,0.1373,0.1388,0.1472,0.1458,0.146,0.1448,0.1499,0.1496,0.1508,0.1362,0.1362,0.1361,0.1361,0,0,0.089,0.0956,0.0968,0.1003,0.1062,0.1085,0.1138,0.1196,0.1242,0.1286,0.1354,0.1405,0.1431,0.1456,0.1474,0.1526,0.1603,0.1537,0.1539,0.1537,0.1707,0.1599,0.16,0.1631,0.1634,0.1636,0.1662,0,0.0911,0.0974,0.1003,0.1066,0.1102,0.1146,0.119,0.1243,0.1291,0.1359,0.1399,0.1464,0.1456,0.1497,0.1549,0.16,0.1643,0.1594,0.1664,0.1665,0.1561,0.1615,0.1646,0.1671,0.1674,0.1676,0.1677,0,0.0926,0.0975,0.104,0.1114,0.1133,0.1173,0.1262,0.1303,0.1387,0.143,0.1496,0.1529,0.1611,0.1603,0.1701,0.1676,0.171,0.1732,0.1733,0.1644,0.1581,0.1621,0.1698,0.1697,0.1695,0.1694,0.1692,0,0.0921,0.1,0.1061,0.1088,0.1168,0.1214,0.1259,0.1334,0.1381,0.1489,0.1535,0.1617,0.1676,0.1736,0.1776,0.1761,0.1876,0.1847,0.1768,0.1758,0.1837,0.1827,0.1937,0.1937,0.1937,0.1936,0.1936,0,0.0936,0.0987,0.1069,0.1107,0.1176,0.1224,0.1302,0.136,0.1448,0.1508,0.1576,0.1632,0.1728,0.1786,0.1811,0.1818,0.1899,0.1793,0.1776,0.1837,0.1826,0.1843,0.1832,0.1937,0.1937,0.1937,0.1937,0,0.0922,0.098,0.105,0.1145,0.1178,0.1226,0.1322,0.1366,0.1454,0.1541,0.1582,0.168,0.1749,0.1799,0.1898,0.1848,0.1872,0.1859,0.1902,0.1884,0.1698,0.1687,0.1756,0.1753,0.175,0.1748,0.1746,0,0.0921,0.0958,0.1066,0.1104,0.1155,0.1232,0.1276,0.1371,0.1418,0.1549,0.1583,0.1687,0.1742,0.1759,0.1832,0.1847,0.184,0.1818,0.1779,0.1712,0.1689,0.1682,0.1676,0.1742,0.1741,0.1741,0.174,0,0.0914,0.0958,0.1011,0.1087,0.1147,0.1202,0.1278,0.1306,0.1412,0.1505,0.1558,0.1591,0.1665,0.1707,0.1738,0.1749,0.181,0.1789,0.1794,0.1757,0.1696,0.1673,0.167,0.173,0.1732,0.1733,0.1733,0,0.0902,0.0926,0.0994,0.1049,0.1117,0.1149,0.1198,0.1251,0.1306,0.1444,0.1466,0.1564,0.1664,0.1658,0.1686,0.1687,0.1659,0.1599,0.1613,0.1624,0.157,0.1472,0.1442,0,0,0,0,0,0.0879,0.0896,0.0947,0.1,0.106,0.1099,0.1184,0.1229,0.1336,0.1343,0.14,0.1459,0.1498,0.1546,0.152,0.1626,0.1664,0.1588,0.1601,0.1678,0.1689,0.1639,0,0,0,0,0,0,0.0862,0.0908,0.0925,0.0942,0.0965,0.1021,0.1071,0.1142,0.1149,0.1263,0.1291,0.1376,0.1433,0.1504,0.1495,0.151,0.1489,0.1653,0.1649,0.1672,0.1682,0.1691,0.1643,0,0,0,0,0]},{"header":{"parameterUnit":"m.s-1","parameterCategory":2,"la1":30.2991,"la2":30.254,"lo1":-89.0895,"lo2":-89.0444,"dy":0.0017,"dx":0.0017,"nx":28,"ny":28,"refTime":"2025-09-12T09:00:00:Z","depth":"4","parameterNumber":3,"parameterNumberName":"V-component_of_CURRENTS"},"data":[0,0,0,0,0,0,0,0,0,0,0,0,0,0,0,0,0,0,0,0,0,0,0,0,0,0,0,0,0,0,0,0,0,0,0,0,0,0,0,0,0,0,0,0,0,0,0,0,0,0,0,0,0,0,0,0,0,0,0.0331,0.0331,0,0.0308,0.0308,0.0308,0.0297,0.0297,0.0297,0.0297,0.0245,0.0243,0.0242,0,0,0,0,0,0,0,0,0,0,0,0,0,0.0312,0.0313,0.0331,0.0331,0.0331,0.0308,0.0308,0.0308,0.0297,0.0297,0.0297,0.0297,0.0245,0.0244,0.0242,0,0,0,0,0,0,0,0,0,0,0,0,0,0.0307,0.0313,0.0331,0.0324,0.0323,0.0308,0.0308,0.0307,0.0296,0.0297,0.0297,0.0297,0.0246,0.0244,0.0242,0.0224,0,0,0.0235,0.0234,0,0,0,0,0,0,0,0,0.0307,0.0308,0.0325,0.0324,0.0323,0.0307,0.0282,0.0278,0.0296,0.0305,0.0297,0.0297,0.0264,0.026,0.0254,0.0221,0.0219,0.0234,0.0233,0.0232,0.0231,0,0,0,0,0,0,0,0.0308,0.0308,0.0321,0.0325,0.0324,0.0303,0.0303,0.0281,0.0282,0.0304,0.0304,0.0303,0.0263,0.0256,0.0252,0.0218,0.0234,0.0232,0.0231,0.023,0.019,0.0191,0,0,0,0,0,0,0.0316,0.0309,0.0321,0.032,0.0317,0.0304,0.0304,0.0311,0.0283,0.0279,0.0303,0.0303,0.026,0.0255,0.025,0.0258,0.0232,0.023,0.0229,0.019,0.0191,0.0191,0,0,0,0,0,0,0.0316,0.0318,0.0322,0.0314,0.0314,0.0305,0.0312,0.031,0.0309,0.0283,0.0278,0.0306,0.026,0.0254,0.0233,0.0254,0.0229,0.0227,0.019,0.019,0.0191,0.0253,0,0,0,0,0,0,0.0315,0.0318,0.0323,0.0315,0.0315,0.0322,0.0312,0.031,0.0309,0.0309,0.0283,0.0278,0.0259,0.0237,0.0231,0.0251,0.0225,0.0189,0.019,0.0191,0.025,0.0255,0.0259,0,0,0,0,0,0.0315,0.0323,0.0324,0.0325,0.0323,0.0322,0.032,0.0312,0.0309,0.0312,0.029,0.0279,0.0237,0.0235,0.0228,0.0248,0.0189,0.019,0.0191,0.0248,0.0254,0.0259,0,0,0,0,0,0,0.0317,0.0322,0.0323,0.0332,0.0332,0.0321,0.0323,0.0317,0.0302,0.0302,0.0275,0.0269,0.0262,0.024,0.0239,0.0237,0.0214,0.0213,0.026,0.0266,0.027,0.0277,0.0223,0,0,0,0,0,0.0321,0.033,0.0329,0.0338,0.0341,0.0333,0.0331,0.0328,0.0315,0.031,0.0292,0.0272,0.0258,0.025,0.0232,0.0224,0.0196,0.0234,0.0239,0.0243,0.0243,0.023,0.0233,0.0193,0.0193,0.0193,0,0,0.0325,0.0328,0.0334,0.0339,0.0339,0.0342,0.0332,0.0337,0.0335,0.0305,0.0297,0.0285,0.0259,0.0255,0.0251,0.0241,0.0235,0.0244,0.0248,0.0245,0.0231,0.0235,0.0238,0.0194,0.0193,0.0193,0,0,0.0329,0.0343,0.0346,0.0351,0.0355,0.0354,0.0358,0.0353,0.0348,0.0339,0.0322,0.0323,0.0292,0.0288,0.0278,0.0294,0.0259,0.029,0.0321,0.0308,0.0311,0.0314,0.0267,0.0265,0.0294,0.0294,0.0294,0,0.0324,0.0337,0.0347,0.0351,0.0355,0.0362,0.0365,0.0363,0.035,0.035,0.0344,0.0326,0.031,0.0312,0.0322,0.0307,0.0278,0.0305,0.0315,0.0317,0.0319,0.027,0.0267,0.0297,0.0297,0.0297,0.0296,0,0.0331,0.0341,0.0348,0.0358,0.0366,0.0373,0.0377,0.0382,0.0382,0.0382,0.0386,0.037,0.036,0.0365,0.0347,0.0359,0.0325,0.0324,0.0305,0.0327,0.0273,0.0269,0.0302,0.0301,0.03,0.0299,0,0,0.0305,0.034,0.034,0.0353,0.037,0.0379,0.0387,0.0395,0.0406,0.0407,0.0413,0.0414,0.0418,0.0407,0.0397,0.0395,0.0382,0.0368,0.0366,0.0326,0.0325,0.0262,0.0251,0.0384,0.0384,0.0385,0.0277,0,0.0297,0.0311,0.0329,0.035,0.0363,0.0381,0.039,0.0405,0.0414,0.0424,0.0429,0.043,0.0429,0.0429,0.0431,0.0396,0.0377,0.041,0.0304,0.03,0.0248,0.0247,0.0385,0.0273,0.0272,0.0271,0.0271,0,0.0289,0.0302,0.0317,0.0356,0.0363,0.0377,0.0407,0.0416,0.0438,0.0445,0.0461,0.0457,0.0457,0.045,0.0407,0.0426,0.0377,0.035,0.0345,0.0263,0.0231,0.0249,0.0263,0.0263,0.0264,0.0265,0.0265,0,0.027,0.0296,0.031,0.0323,0.0363,0.0374,0.0395,0.0425,0.0443,0.0457,0.0468,0.0469,0.0457,0.0425,0.0367,0.0384,0.0302,0.0314,0.0204,0.0197,0.026,0.0258,0.027,0.027,0.027,0.027,0.0271,0,0.0256,0.0271,0.0307,0.0319,0.0351,0.0375,0.041,0.0429,0.0457,0.0488,0.0479,0.0483,0.0452,0.0405,0.0359,0.0258,0.0287,0.0199,0.0171,0.0284,0.0287,0.0255,0.0255,0.0266,0.0267,0.0268,0.0269,0,0.0243,0.026,0.0291,0.033,0.0348,0.0375,0.0431,0.046,0.0471,0.0505,0.0505,0.0484,0.0413,0.0354,0.0276,0.0228,0.015,0.0099,0.0193,0.0173,0.0052,0.0057,-0.0027,-0.003,-0.0033,-0.0035,-0.0037,0,0.0238,0.025,0.0305,0.0335,0.0357,0.0401,0.0439,0.0471,0.0506,0.0508,0.0524,0.0448,0.0423,0.0263,0.0194,0.0063,0.0051,-0.0005,0.0059,0.0044,0.0024,0.0033,0.004,-0.0041,-0.0041,-0.0042,-0.0043,0,0.0237,0.0258,0.0291,0.0351,0.0397,0.045,0.0501,0.0523,0.0557,0.0558,0.0535,0.045,0.0347,0.0244,0.0117,0.0039,0.0035,-0.0032,-0.0026,0.0035,0.0026,0.0011,0.0022,-0.0051,-0.005,-0.0049,-0.0049,0,0.0244,0.0271,0.0319,0.0375,0.0434,0.049,0.0513,0.0547,0.0572,0.0575,0.0558,0.0454,0.0399,0.0225,0.0126,0.0021,0.001,-0.0,0.0004,0.0013,0.0062,0.0059,-0.004,0,0,0,0,0,0.0253,0.0289,0.0342,0.0409,0.0467,0.0505,0.0559,0.0577,0.0598,0.0589,0.0578,0.0486,0.0311,0.0235,0.012,0.0073,-0.0016,-0.0068,-0.0026,-0.01,-0.009,-0.0044,0,0,0,0,0,0,0.026,0.031,0.0343,0.0427,0.0477,0.0546,0.0583,0.0595,0.0593,0.059,0.0503,0.0454,0.0289,0.0384,0.0119,0.0082,0.0091,-0.0149,-0.0152,-0.0106,-0.0097,-0.0089,-0.0037,0,0,0,0,0]}]]